TimePST,TemperatureF,Dew PointF,Humidity,Sea Level PressureIn,VisibilityMPH,Wind Direction,Wind SpeedMPH,Gust SpeedMPH,PrecipitationIn,Events,Conditions,WindDirDegrees,DateUTC
12:56 AM,18.0,14.0,84,30.03,10.0,NW,5.8,-,N/A,,Clear,310,2012-12-30 08:56:00
1:56 AM,19.9,15.1,81,30.02,10.0,NW,4.6,-,N/A,,Mostly Cloudy,310,2012-12-30 09:56:00
2:56 AM,19.9,16.0,85,30.02,10.0,Calm,Calm,-,N/A,,Overcast,0,2012-12-30 10:56:00
3:56 AM,21.0,17.1,85,30.00,10.0,NNE,3.5,-,N/A,,Overcast,20,2012-12-30 11:56:00
4:56 AM,21.9,17.1,82,30.00,10.0,WNW,4.6,-,N/A,,Overcast,290,2012-12-30 12:56:00
5:56 AM,21.9,18.0,85,30.00,10.0,NNE,3.5,-,N/A,,Overcast,20,2012-12-30 13:56:00
6:56 AM,23.0,18.0,81,30.01,10.0,WNW,3.5,-,N/A,,Overcast,300,2012-12-30 14:56:00
7:56 AM,26.1,19.9,78,30.01,10.0,Calm,Calm,-,N/A,,Overcast,0,2012-12-30 15:56:00
8:56 AM,28.0,21.0,75,30.04,10.0,Calm,Calm,-,N/A,,Overcast,0,2012-12-30 16:56:00
9:56 AM,30.9,21.9,69,30.05,10.0,Calm,Calm,-,N/A,,Overcast,0,2012-12-30 17:56:00
10:56 AM,34.0,21.9,61,30.04,10.0,NW,3.5,-,N/A,,Overcast,310,2012-12-30 18:56:00
11:56 AM,36.0,21.9,57,30.01,10.0,Variable,4.6,-,N/A,,Partly Cloudy,0,2012-12-30 19:56:00
12:56 PM,37.9,21.0,51,30.00,10.0,Calm,Calm,-,N/A,,Clear,0,2012-12-30 20:56:00
1:56 PM,39.9,19.0,43,29.97,10.0,North,12.7,19.6,N/A,,Mostly Cloudy,350,2012-12-30 21:56:00
2:56 PM,39.0,19.0,45,29.97,10.0,North,16.1,24.2,0.00,,Clear,360,2012-12-30 22:56:00
3:56 PM,35.1,18.0,50,30.00,10.0,North,15.0,-,N/A,,Scattered Clouds,10,2012-12-30 23:56:00
4:56 PM,32.0,17.1,54,30.02,10.0,North,18.4,-,N/A,,Mostly Cloudy,10,2012-12-31 00:56:00
5:56 PM,30.0,16.0,56,30.05,10.0,North,16.1,25.3,N/A,,Scattered Clouds,10,2012-12-31 01:56:00
6:56 PM,30.0,15.1,54,30.08,10.0,North,19.6,27.6,N/A,,Clear,10,2012-12-31 02:56:00
7:56 PM,28.9,14.0,54,30.10,10.0,North,15.0,23.0,N/A,,Clear,360,2012-12-31 03:56:00
8:56 PM,28.0,14.0,56,30.13,10.0,North,19.6,25.3,N/A,,Clear,10,2012-12-31 04:56:00
9:56 PM,27.0,12.9,56,30.14,10.0,North,17.3,-,N/A,,Clear,10,2012-12-31 05:56:00
10:56 PM,26.1,12.9,58,30.14,10.0,North,13.8,-,N/A,,Clear,10,2012-12-31 06:56:00
11:56 PM,24.1,12.0,60,30.16,10.0,North,10.4,-,N/A,,Clear,360,2012-12-31 07:56:00